Hourly Data Report for April 14, 2018

KUGAARUK CLIMATE
NUNAVUT
Current Station Operator: ECCC - MSC

68°32'15.060" N
89°47'47.020" W
15.80 m
2303094
71407
NBB

Download Data

Hourly Data (April 2018)
Hourly Data Report for April 14, 2018
TIME
LST
Temp Definition
°C
Dew Point Definition
°C
Rel Hum Definition
%
Precip. Amount Definition
mm

Wind Dir Definition
10's deg

Wind Spd Definition
km/h
Visibility Definition
km
Stn Press Definition
kPa
Hmdx Definition


Wind Chill Definition


Weather Definition


00:00 -14.2 -17.9 74 0.0 21 48   101.49   -27 LegendNANA
01:00 -13.3 -17.1 73 0.0 23 47   101.51   -26 LegendNANA
02:00 -13.4 -17.1 74 0.0 23 35   101.57   -25 LegendNANA
03:00 -13.3 -16.6 76 0.0 23 38   101.56   -25 LegendNANA
04:00 -13.4 -16.3 79 0.0 24 34   101.59   -25 LegendNANA
05:00 -13.4 -15.8 82 0.0 23 29   101.62   -24 LegendNANA
06:00 -13.5 -15.6 84 0.0 23 36   101.63   -25 LegendNANA
07:00 -13.3 -15.5 84 0.0 24 37   101.62   -25 LegendNANA
08:00 -12.8 -15.6 79 0.0 26 25   101.74   -22 LegendNANA
09:00 -12.3 -15.5 77 0.0 26 29   101.73   -22 LegendNANA
10:00 -12.3 -15.8 75 0.0 25 23   101.81   -21 LegendNANA
11:00 -11.8 -15.5 74 0.0 25 21   101.83   -20 LegendNANA
12:00 -11.2 -14.7 76 0.0 26 24   101.88   -20 LegendNANA
13:00 -10.8 -14.1 77 0.0 25 23   101.92   -19 LegendNANA
14:00 -11.2 -14.0 80 0.0 24 23   101.96   -20 LegendNANA
15:00 -11.5 -14.6 78 0.0 26 21   102.03   -20 LegendNANA
16:00 -12.0 -16.0 72 0.0 24 12   102.05   -18 LegendNANA
17:00 -12.3 -15.8 75 0.0 27 10   102.07   -18 LegendNANA
18:00 -14.5 -17.6 77 0.0 29 5   102.13   -18 LegendNANA
19:00 -15.6 -17.3 87 0.0 26 3   102.15   -18 LegendNANA
20:00 -17.2 -18.9 86 0.0 18 2   102.20   -19 LegendNANA
21:00 -19.2 -21.2 84 0.0 12 1   102.19   -20 LegendNANA
22:00 -21.3 -23.6 81 0.0 6 3   102.20   -24 LegendNANA
23:00 -22.2 -24.5 81 0.0 3 7   102.21   -28 LegendNANA

Notes on Data Quality.

Legend

  • E = Estimated
  • M = Missing
  • NA = Not Available*
  • [empty] = Indicates an unobserved value
Date modified: